Preview of NWS' New Version of Forecast
This preview is not operational and should not be used for support decisions.

Regional Weather Roundup (RWR)

Issued by National Weather Service (NWS)

                            
000
ASPQ40 PGUM 210810
RWRPQ 
WEATHER ROUNDUP FOR THE MARIANAS AND MICRONESIA
NATIONAL WEATHER SERVICE TIYAN GU
600 PM CHST WED AUG 21 2019

GUZ001>004-210900-
MARIANA ISLANDS-
  
CITY           SKY/WX    TMP DP  RH WIND       PRES   REMARKS
GUAM AIRPORT   RAIN      82  75  78 N3        29.83R                  
ANDERSEN AFB   MOCLDY    84  73  70 NE6       29.84  HX  91           
ROTA AIRPORT   PTCLDY    82  75  78 N13       29.79R                  
TINIAN AP      PTCLDY    84  75  74 E10       29.81R HX  92           
SAIPAN AP      PTCLDY    86  75  70 NE6       29.82R HX  95           

$$

PMZ161-210900-
REPUBLIC OF PALAU-
  
CITY           SKY/WX    TMP DP  RH WIND       PRES   REMARKS
KOROR AP       CLOUDY    82  75  78 SW9       29.77F                  
KOROR WSO      NOT AVBL                                               

$$

PMZ171>174-210900-
FEDERATED STATES OF MICRONESIA-
  
CITY           SKY/WX    TMP DP  RH WIND       PRES   REMARKS
YAP AIRPORT    CLOUDY    79  75  89 VRB6      29.79R                  
CHUUK AP       CLOUDY    86  81  84 VRB5      29.72R HX 102           
POHNPEI AP     NOT AVBL                                               
POHNPEI WSO    PTCLDY    82  77  83 S3        29.76R HX  91           
KOSRAE AP      NOT AVBL                                               

$$

PMZ181-210900-
REPUBLIC OF THE MARSHALL ISLANDS-
  
CITY           SKY/WX    TMP DP  RH WIND       PRES   REMARKS
KWAJALEIN AP   PTCLDY    84  77  79 E9        29.81R HX  94           
MAJURO AP      MOCLDY    84  77  79 E6        29.80R HX  94           
MAJURO WSO     MOCLDY    82  77  83 E5        29.78R HX  91           

$$